Tiruchchirapalli, India

7:33 AM IST on February 26, 2017 (GMT +0530)
Tiruchirappalli

Weather History for VOTR - November, 2012

Change the Weather History Date:

Sunday, November 18, 2012

  Actual Average Record
Temperature  
Mean Temperature 79 °F -  
Max Temperature 89 °F 82 °F 95 °F (2004)
Min Temperature 69 °F 72 °F 68 °F (2005)
Cooling Degree Days 14    
Growing Degree Days 29 (Base 50)    
Moisture  
Dew Point 67 °F    
Average Humidity 68    
Maximum Humidity 94    
Minimum Humidity 40    
Precipitation  
Precipitation 0.00 in - - ()
Sea Level Pressure  
Sea Level Pressure 29.85 in    
Wind  
Wind Speed 2 mph ()    
Max Wind Speed 6 mph    
Max Gust Speed -    
Visibility 2.2 miles    
Events      
Averages and records for this station are not official NWS values.
T = Trace of Precipitation, MM = Missing Value Source: Averaged Metar Reports

Daily Weather History Graph

Daily Weather History Graph

Search for Another Location

Airport or City:

Trip Planner

Search our weather history database for the weather conditions in past years. The results will help you decide how hot, cold, wet, or windy it might be!

Date:

Astronomy

Nov. 18, 2012 Rise Set
Actual Time 6:11 AM IST 5:48 PM IST
Civil Twilight 5:49 AM IST 6:10 PM IST
Nautical Twilight 5:23 AM IST 6:36 PM IST
Astronomical Twilight 4:58 AM IST 7:02 PM IST
Moon 10:25 AM IST (11/18) 10:25 PM IST (11/18)
Length of Visible Light 12h 21m
Length of Day
11h 36m
Waxing Crescent, 25% of the Moon is Illuminated
Nov 18
Waxing Crescent
Nov 20
First Quarter
Nov 28
Full
Dec 6
Last Quarter
Dec 13
New

Hourly Weather History & Observations

Time (IST) Temp. Heat Index Dew Point Humidity Pressure Visibility Wind Dir Wind Speed Gust Speed Precip Events Conditions
12:10 AM 75.2 °F - 71.6 °F 89% 29.89 in 2.5 mi East 2.3 mph - N/A   Haze
12:40 AM 75.2 °F - 71.6 °F 89% 29.89 in 2.5 mi East 2.3 mph - N/A   Haze
1:10 AM 75.2 °F - 68.0 °F 78% 29.89 in 1.9 mi East 2.3 mph - N/A   Haze
1:40 AM 73.4 °F - 68.0 °F 83% 29.89 in 1.9 mi East 2.3 mph - N/A   Haze
2:10 AM 73.4 °F - 68.0 °F 83% 29.86 in 1.9 mi Calm Calm - N/A   Haze
2:30 AM 73 °F - 68 °F 81% 29.89 in 1 mi Calm Calm - -   Haze
2:40 AM 73.4 °F - 68.0 °F 83% 29.86 in 1.9 mi NNE 2.3 mph - N/A   Haze
3:10 AM 73.4 °F - 68.0 °F 83% 29.86 in 1.9 mi Calm Calm - N/A   Haze
3:40 AM 73.4 °F - 69.8 °F 88% 29.86 in 1.9 mi Calm Calm - N/A   Haze
4:10 AM 73.4 °F - 69.8 °F 88% 29.86 in 1.9 mi Calm Calm - N/A   Haze
4:40 AM 71.6 °F - 69.8 °F 94% 29.86 in 1.9 mi Calm Calm - N/A   Haze
5:10 AM 71.6 °F - 69.8 °F 94% 29.86 in 1.9 mi Calm Calm - N/A   Haze
5:30 AM 71 °F - 67 °F 82% 29.86 in 1 mi Calm Calm - -   Haze
5:40 AM 69.8 °F - 66.2 °F 88% 29.86 in 1.2 mi Calm Calm - N/A   Mist
6:40 AM 71.6 °F - 66.2 °F 83% 29.89 in 0.9 mi Calm Calm - N/A   Partly Cloudy
7:10 AM 73.4 °F - 68.0 °F 83% 29.89 in 1.2 mi Calm Calm - N/A   Partly Cloudy
7:40 AM 73.4 °F - 68.0 °F 83% 29.89 in 1.2 mi Calm Calm - N/A   Partly Cloudy
8:10 AM 75.2 °F - 68.0 °F 78% 29.89 in 1.2 mi Calm Calm - N/A   Scattered Clouds
8:40 AM 77.0 °F - 66.2 °F 69% 29.92 in 1.2 mi Calm Calm - N/A   Scattered Clouds
9:10 AM 78.8 °F - 66.2 °F 65% 29.92 in 1.6 mi NNE 2.3 mph - N/A   Partly Cloudy
9:40 AM 80.6 °F 83.2 °F 68.0 °F 65% 29.92 in 1.9 mi NE 3.5 mph - N/A   Haze
10:10 AM 82.4 °F 84.6 °F 66.2 °F 58% 29.89 in 2.5 mi East 4.6 mph - N/A   Haze
10:40 AM 84.2 °F 86.6 °F 66.2 °F 55% 29.89 in 2.5 mi East 5.8 mph - N/A   Haze
11:10 AM 86.0 °F 88.2 °F 66.2 °F 51% 29.89 in 2.5 mi ENE 3.5 mph - N/A   Haze
11:30 AM - - - %  in 2 mi NE 5.8 mph - -   Haze
11:40 AM 86.0 °F 87.3 °F 64.4 °F 48% 29.86 in 2.5 mi ENE 4.6 mph - N/A   Haze
12:40 PM 87.8 °F 89.4 °F 64.4 °F 46% 29.83 in 3.1 mi ENE 3.5 mph - N/A   Haze
1:10 PM 87.8 °F 89.4 °F 64.4 °F 46% 29.83 in 3.1 mi ENE 4.6 mph - N/A   Haze
1:40 PM 87.8 °F 89.4 °F 64.4 °F 46% 29.80 in 3.1 mi SE 3.5 mph - N/A   Haze
2:10 PM 87.8 °F 89.4 °F 64.4 °F 46% 29.80 in 3.1 mi SE 3.5 mph - N/A   Haze
2:30 PM - - - %  in 2 mi SSE 4.6 mph - -   Haze
2:40 PM 89.6 °F 90.1 °F 62.6 °F 40% 29.77 in 3.1 mi SSE 4.6 mph - N/A   Haze
3:10 PM 89.6 °F 90.1 °F 62.6 °F 40% 29.77 in 3.1 mi SE 5.8 mph - N/A   Haze
3:40 PM 87.8 °F 89.4 °F 64.4 °F 46% 29.77 in 2.5 mi East 3.5 mph - N/A   Haze
4:10 PM 86.0 °F 87.3 °F 64.4 °F 48% 29.77 in 2.5 mi East 3.5 mph - N/A   Haze
4:40 PM 86.0 °F 87.3 °F 64.4 °F 48% 29.77 in 2.5 mi Variable 2.3 mph - N/A   Haze
5:10 PM 84.2 °F 86.6 °F 66.2 °F 55% 29.77 in 2.5 mi Calm Calm - N/A   Haze
5:30 PM - - - %  in 2 mi SE 2.3 mph - -   Haze
5:40 PM 84.2 °F 86.6 °F 66.2 °F 55% 29.77 in 2.5 mi SSE 2.3 mph - N/A   Haze
6:10 PM 82.4 °F 84.6 °F 66.2 °F 58% 29.77 in 2.5 mi Variable 2.3 mph - N/A   Haze
6:40 PM 82.4 °F 84.6 °F 66.2 °F 58% 29.80 in 2.5 mi Calm Calm - N/A   Haze
7:10 PM 82.4 °F 84.6 °F 66.2 °F 58% 29.80 in 2.5 mi SSE 2.3 mph - N/A   Haze
7:40 PM 80.6 °F 82.7 °F 66.2 °F 61% 29.83 in 2.5 mi SE 3.5 mph - N/A   Haze
8:10 PM 80.6 °F 82.7 °F 66.2 °F 61% 29.83 in 2.5 mi SE 3.5 mph - N/A   Haze
8:30 PM 78 °F - 67 °F 61% 29.83 in 2 mi SSE 3.5 mph - -   Haze
8:40 PM 78.8 °F - 68.0 °F 69% 29.83 in 2.5 mi SSE 4.6 mph - N/A   Haze
9:10 PM 77.0 °F - 68.0 °F 74% 29.83 in 2.5 mi ESE 5.8 mph - N/A   Haze
9:40 PM 77.0 °F - 68.0 °F 74% 29.86 in 2.5 mi ESE 5.8 mph - N/A   Haze
10:10 PM 77.0 °F - 68.0 °F 74% 29.86 in 2.5 mi South 3.5 mph - N/A   Haze
10:40 PM 77.0 °F - 68.0 °F 74% 29.86 in 2.5 mi ESE 3.5 mph - N/A   Haze
11:10 PM 77.0 °F - 68.0 °F 74% 29.86 in 2.5 mi ESE 3.5 mph - N/A   Haze
11:30 PM 74 °F - 68 °F 76% 29.86 in 2 mi ESE 3.5 mph - -   Haze
11:40 PM 75.2 °F - 68.0 °F 78% 29.86 in 2.5 mi ESE 3.5 mph - N/A   Haze